Regional Weather Roundup
Issued by NWS

Home | Current Version | Previous Version | Text Only | Print | Product List | Glossary On
Versions: 1 2 3 4 5 6 7 8 9 10 11 12 13 14 15 16 17 18 19 20 21 22 23 24 25 26 27 28 29 30 31 32 33 34 35 36 37 38 39 40 41 42 43 44 45 46 47 48 49 50
791
ASUS45 KBOU 240907
RWRCO

WEATHER ROUNDUP FOR COLORADO
NATIONAL WEATHER SERVICE DENVER/BOULDER CO
200 AM MST FRI FEB 24 2017

NOTE: "FAIR" INDICATES FEW OR NO CLOUDS BELOW 12000 FEET WITH NO
SIGNIFICANT WEATHER AND/OR OBSTRUCTIONS TO VISIBILITY.

COZ001>005-013-030-031-241000-
...NORTHWEST COLORADO...

CITY           SKY/WX    TMP DP  RH WIND       PRES   REMARKS
CRAIG          CLOUDY    20  14  77 W8        29.78R WCI  10
HAYDEN         MOCLDY    18  12  79 NW10      29.75R WCI   6
MEEKER         LGT SNOW  21  18  88 S5        29.78R FOG     WCI  15
MOUNT WERNER   NOT AVBL
STEAMBOAT SPGS CLOUDY    18  15  88 CALM      29.74R
WALDEN         NOT AVBL
$$

COZ006>008-011-241000-
...WEST CENTRAL VALLEYS...

CITY           SKY/WX    TMP DP  RH WIND       PRES   REMARKS
GRAND JUNCTION FAIR      24  22  91 CALM      29.82S
MONTROSE       FAIR      21  12  68 SE5       29.84R WCI  15
EAGLE          FAIR      18  15  88 E5        29.79R WCI  11
RIFLE          CLOUDY    24  22  91 W5        29.82S WCI  18
DELTA          FAIR      26  16  65 NE6       29.83S WCI  19
NUCLA          CLOUDY    27  12  54 E6        29.85S WCI  20
$$

COZ017>023-064>068-241000-
...SOUTHWEST COLORADO...

CITY           SKY/WX    TMP DP  RH WIND       PRES   REMARKS
DURANGO        CLOUDY    19  11  70 CALM      29.80R
CORTEZ         CLOUDY    23  17  78 NE3       29.83S
PAGOSA SPRINGS MOCLDY    11   4  73 CALM      29.78S
TELLURIDE      LGT SNOW  12   9  86 S5        29.76S WCI   4
WOLF CREEK PAS FAIR       0  -6  78 SW8       29.69S WCI -15
$$

COZ009-010-012-014-032>034-037-058>063-241000-
...CENTRAL COLORADO...

CITY           SKY/WX    TMP DP  RH WIND       PRES   REMARKS
ASPEN          CLOUDY    13   4  67 VRB5      29.72S WCI   5
BUENA VISTA    FAIR      14   3  62 NW7       29.71F WCI   4
COPPER MTN     CLOUDY     5  -4  66 MISG      29.58S HAZE
BERTHOUD PASS  LGT SNOW  -4 -13  65 MISG      29.52F
COTTONWOOD PAS FAIR      14  -2  48 W10G24    29.65S WCI   1
GUNNISON       FAIR       9   2  73 NE3       29.77S
KREMMLING      FLURRIES  21  18  86 CALM      29.73S
LEADVILLE      MOCLDY     2  -5  72 NE8       29.64S WCI -12
MONARCH PASS   CLOUDY     1  -4  78 W28G35    29.69F WCI -23
SALIDA         FAIR      20   6  54 SW7       29.80F WCI  12
SUNLIGHT       NOT AVBL
WILKERSON PASS FAIR       3  -2  78 SW13G18   29.60F WCI -14
$$

COZ069>075-241000-
...SAN LUIS VALLEY/SANGRE DE CRISTO MOUNTAINS...

CITY           SKY/WX    TMP DP  RH WIND       PRES   REMARKS
ALAMOSA        FAIR      16  10  77 NW5       29.75R WCI   9
LA VETA PASS   FAIR       9  -2  61 SW13G22   29.66R WCI  -7
SAGUACHE       FAIR      12   3  67 NW13      29.75S WCI  -3
$$

COZ035-036-038>040-241000-
...NORTHERN COLORADO FRONT RANGE...

CITY           SKY/WX    TMP DP  RH WIND       PRES   REMARKS
DENVER INTL AP LGT SNOW  18  14  84 N8        29.83F FOG     WCI   8
DMNS CITY PARK   N/A     19  14  82 MISG      29.85S
AURORA         FLURRIES  17  15  93 NW6       29.83S WCI   8
FRONT RANGE AP FLURRIES  21  19  93 NW7       29.84S WCI  13
ERIE MUNI ARPT FLURRIES  20  18  91 W3        29.86F
BOULDER MUN AP CLOUDY    19  16  86 CALM      29.85S
CENTENNIAL     CLOUDY    16  13  88 W7        29.82S WCI   6
BROOMFIELD     FLURRIES  19  18  93 N3        29.84S
FORT COLLINS   CLOUDY    21  13  71 N9        29.87S WCI  11
LONGMONT       CLOUDY    20  16  82 CALM      29.88F
$$

COZ041-046-047-076>085-087-088-241000-
...PIKES PEAK/PALMER DIVIDE AND SOUTHERN FOOTHILLS...

CITY           SKY/WX    TMP DP  RH WIND       PRES   REMARKS
COLO. SPRINGS  FAIR      17   6  62 N12G24    29.74R WCI   4
A. F. ACADEMY  FAIR      13   7  74 N20       29.71F WCI  -4
SCHRIEVER AFB  FAIR      14   8  77 N17G29    29.75R WCI  -3
ELLICOTT       FAIR       1  32 100 N21G28      N/A  WCI -21
FALCON         FAIR      13   7  77 N15G24    29.73R WCI  -3
FORT CARSON    FAIR      16   7  67 N7        29.76R WCI   6
LIMON          CLOUDY    17  15  92 NW18G25   29.80R WCI   1
MONUMENT HILL  FLURRIES  10   9  92 NW12G17   29.77S WCI  -4
TRINIDAD       CLOUDY    22  15  75 E5        29.80R WCI  16
$$

COZ042>045-048>051-090-091-241000-
...NORTHEAST COLORADO...

CITY           SKY/WX    TMP DP  RH WIND       PRES   REMARKS
GREELEY ARPT   CLOUDY    21  16  81 N6        29.89S WCI  13
AKRON          FLURRIES  17  15  92 N9        29.84R WCI   6
BURLINGTON     MOCLDY    21  17  84 N16       29.80R WCI   7
WRAY           NOT AVBL
STERLING       LGT SNOW  23  19  86 N9        29.87R WCI  13
HOLYOKE        LGT SNOW  25  21  86 N12       29.85S WCI  14
FORT MORGAN    CLOUDY    20  18  91 N5        29.87S WCI  14
$$

COZ086-089-092>099-241000-
...SOUTHEAST COLORADO...

CITY           SKY/WX    TMP DP  RH WIND       PRES   REMARKS
PUEBLO         FAIR      19   8  62 SE3       29.82R
LA JUNTA       FAIR      21  12  68 NW6       29.86R WCI  13
LAMAR          CLOUDY    26  13  57 N10       29.85R WCI  16
SPRINGFIELD      N/A     21  15  78 NW10      29.81R WCI  10
$$




USA.gov is the U.S. government's official web portal to all federal, state and local government web resources and services.